Printer-friendly version
Follow the MPC on Twitter Follow the MPC on Facebook The MPC blog
Minor Planet Center

MPEC 2006-C39 : 2006 CV9

The following Minor Planet Electronic Circular may be linked-to from your own Web pages, but must not otherwise be redistributed electronically.

A form allowing access to any MPEC is at the bottom of this page.


Read MPEC 2006-C38 Read MPEC 2006-C40


M.P.E.C. 2006-C39                                Issued 2006 Feb. 6, 15:49 UT

     The Minor Planet Electronic Circulars contain information on unusual
         minor planets and routine data on comets.  They are published
   on behalf of Commission 20 of the International Astronomical Union by the
          Minor Planet Center, Smithsonian Astrophysical Observatory,
                          Cambridge, MA 02138, U.S.A.

                  Supported in part by the Brinson Foundation
                  Supported in part by the TABASGO Foundation
             Prepared using the Tamkin Foundation Computer Network

                              MPC@CFA.HARVARD.EDU
          URL http://cfa-www.harvard.edu/iau/mpc.html  ISSN 1523-6714

                                   2006 CV9

Observations:
     K06C09V* C2006 02 04.39927 13 00 51.48 +28 24 21.9          19.7 V EC039703
     K06C09V  C2006 02 04.40782 13 00 53.17 +28 24 36.9          19.6 V EC039703
     K06C09V  C2006 02 04.41641 13 00 54.93 +28 24 54.8          18.8 V EC039703
     K06C09V  C2006 02 04.42507 13 00 56.66 +28 25 09.4          19.7 V EC039703
     K06C09V  C2006 02 04.46912 13 01 05.66 +28 26 36.3          19.4 V EC039703
     K06C09V  C2006 02 04.47127 13 01 06.06 +28 26 41.2          19.4 V EC039703
     K06C09V  C2006 02 04.47345 13 01 06.49 +28 26 44.3          19.2 V EC039703
     K06C09V  C2006 02 04.47562 13 01 06.96 +28 26 48.5          19.6 V EC039703
     K06C09V  C2006 02 04.55315 13 01 22.71 +28 29 16.9          19.2 V EC039703
     K06C09V  C2006 02 04.55389 13 01 22.76 +28 29 17.8          19.5 V EC039703
     K06C09V  C2006 02 04.55460 13 01 22.88 +28 29 19.2          19.6 V EC039703
     K06C09V  C2006 02 04.93412 13 02 44.05 +28 41 16.9          19.1   EC039147
     K06C09V  C2006 02 04.93781 13 02 44.81 +28 41 23.6          19.1   EC039147
     K06C09V  C2006 02 04.94150 13 02 45.59 +28 41 30.6          18.6   EC039147
     K06C09V  C2006 02 05.14380 13 03 26.77 +28 48 00.5          19.3 V EC039595
     K06C09V  C2006 02 05.15769 13 03 29.58 +28 48 28.4                 EC039595
     K06C09V 2C2006 02 05.41268 13 04 23.15 +28 56 37.7          19.3 R EC039H06
     K06C09V 2C2006 02 05.42351 13 04 25.26 +28 56 58.4          19.8 R EC039H06
     K06C09V  C2006 02 06.45775 13 07 58.44 +29 29 31.6          19.1 V EC039G96
     K06C09V  C2006 02 06.46737 13 08 00.34 +29 29 49.9          18.8 V EC039G96
     K06C09V  C2006 02 06.47700 13 08 02.22 +29 30 07.6          19.2 V EC039G96
     K06C09V  C2006 02 06.48669 13 08 04.12 +29 30 25.9          19.1 V EC039G96

Observer details:
147 Osservatorio Astronomico di Suno.  Observers D. Crespi, S. Foglia,
    G. Galli, S. Minuto.  Measurers S. Foglia, G. Galli.  0.40-m f/4 reflector
    + CCD.
595 Farra d'Isonzo.  Observers M. Spolaor, E. Pettarin.  Measurer M. Spolaor.
    0.40-m f/4.5 reflector + CCD.
703 Catalina Sky Survey.  Observer E. J. Christensen.  Measurers E. C. Beshore,
    E. J. Christensen, G. J. Garradd, A. D. Grauer, R. E. Hill, R. A. Kowalski,
    S. M. Larson, R. H. McNaught.  0.68-m Schmidt + CCD.
G96 Mt. Lemmon Survey.  Observer R. A. Kowalski.  Measurers E. C. Beshore,
    E. J. Christensen, G. J. Garradd, A. D. Grauer, R. E. Hill, R. A. Kowalski,
    S. M. Larson, R. H. McNaught.  1.5-m reflector + CCD.
H06 New Mexico Skies Observatory.  Observer R. Hutsebaut.  0.25-m reflector
    + CCD.

Orbital elements:
2006 CV9                                                 Earth MOID = 0.3461 AU
Epoch 2006 Mar. 6.0 TT = JDT 2453800.5                  MPC
M   6.23027              (2000.0)            P               Q
n   0.21143661     Peri.   32.52922     -0.83161225     -0.46709623
a   2.7905037      Node   116.74210     +0.40979472     -0.88119397
e   0.5354018      Incl.   19.65663     +0.37481908     -0.07292669
P   4.66           H   18.9           G   0.15           U   8
Residuals in seconds of arc
060204 703  0.4+  0.8+    060204 703  1.3+  0.4+    060205 H06  0.4+  0.2+
060204 703  0.2-  0.8-    060204 703  0.0   0.1-    060205 H06  0.3-  0.1+
060204 703  0.0   0.4+    060204 703  0.4-  0.0     060206 G96  0.2+  0.1-
060204 703  0.4-  1.8-    060204 147  0.1+  0.0     060206 G96  0.3+  0.1+
060204 703  0.7+  0.1+    060204 147  0.0   0.5-    060206 G96  0.1+  0.2-
060204 703  0.2+  0.9+    060204 147  0.2+  0.7-    060206 G96  0.1+  0.1-
060204 703  0.1+  0.2-    060205 595  0.9+  1.4-
060204 703  0.5+  0.1-    060205 595  1.0+  0.1+

Ephemeris:
2006 CV9                 a,e,i = 2.79, 0.54, 20                  q = 1.2965
Date    TT    R. A. (2000) Decl.     Delta      r     Elong.  Phase     V
2006 02 04    12 59.44   +28 11.6    0.443    1.296   126.0    38.0    19.2
2006 02 14    13 32.14   +33 12.6    0.448    1.301   125.7    38.0    19.3
2006 02 24    13 58.15   +37 19.7    0.465    1.314   125.3    37.9    19.4
2006 03 06    14 15.85   +40 22.7    0.490    1.336   125.2    37.3    19.5
2006 03 16    14 25.06   +42 17.1    0.522    1.367   125.7    36.2    19.6
2006 03 26    14 26.82   +43 01.8    0.559    1.404   126.5    34.8    19.8
2006 04 05    14 23.10   +42 34.6    0.602    1.448   127.6    33.2    20.0
2006 04 15    14 16.62   +40 56.9    0.651    1.497   128.4    31.7    20.2
2006 04 25    14 09.85   +38 17.3    0.709    1.551   128.7    30.4    20.4
2006 05 05    14 04.58   +34 48.8    0.776    1.608   128.1    29.6    20.7
2006 05 15    14 01.85   +30 48.1    0.855    1.667   126.4    29.2    20.9
2006 05 25    14 01.84   +26 31.4    0.947    1.729   123.8    29.1    21.2
2006 06 04    14 04.45   +22 11.4    1.051    1.792   120.4    29.2    21.6
2006 06 14    14 09.38   +17 57.6    1.168    1.857   116.3    29.4    21.9

Gareth V. Williams           (C) Copyright 2006 MPC           M.P.E.C. 2006-C39

Read MPEC 2006-C38 Read MPEC 2006-C40


MPEC number:

Enter an MPEC number in one of the following forms:

  • 1997-B01 (the full form)
  • J97B01 (the packed version of the full form)
  • B01 (the abbreviated form)

Valid HTML 4.01!